Wheeling, WV

9:07 AM EST on December 07, 2019 (GMT -0500)
Wheeling-Ohio County

Weather History for KHLG - October, 2019

Change the Weather History Date:

Tuesday, October 15, 2019

  Actual Average Record
Temperature  
Mean Temperature 54 °F 54 °F  
Max Temperature 70 °F 63 °F 84 °F (1947)
Min Temperature 39 °F 44 °F 20 °F (1939)
Degree Days  
Heating Degree Days 11 12  
Month to date heating degree days 144  
Since 1 July heating degree days 245  
Cooling Degree Days 0    
Month to date cooling degree days  
Year to date cooling degree days  
Growing Degree Days 4 (Base 50)    
Moisture  
Dew Point 38 °F    
Average Humidity 59    
Maximum Humidity 89    
Minimum Humidity 29    
Precipitation  
Precipitation 0.00 in 0.08 in 0.74 in (1941)
Month to date precipitation 1.25  
Year to date precipitation 31.02  
Sea Level Pressure  
Sea Level Pressure 30.04 in    
Wind  
Wind Speed 4 mph (SE)    
Max Wind Speed 14 mph    
Max Gust Speed -    
Visibility 10 miles    
Events      
T = Trace of Precipitation, MM = Missing Value Source: NWS Daily Summary

Daily Weather History Graph

Daily Weather History Graph

Search for Another Location

Airport or City:

Astronomy

Oct. 15, 2019 Rise Set
Actual Time 7:32 AM EDT 6:43 PM EDT
Civil Twilight 7:05 AM EDT 7:10 PM EDT
Nautical Twilight 6:34 AM EDT 7:41 PM EDT
Astronomical Twilight 6:02 AM EDT 8:13 PM EDT
Moon 8:02 PM EDT (10/15) 9:02 AM EDT (10/15)
Length of Visible Light 12h 04m
Length of Day
11h 10m
Full, 97% of the Moon is Illuminated
Oct 15
Full
Oct 21
Last Quarter
Oct 27
New
Nov 4
First Quarter
Nov 12
Full

Hourly Weather History & Observations

Time (EDT) Temp. Windchill Dew Point Humidity Pressure Visibility Wind Dir Wind Speed Gust Speed Precip Events Conditions
12:53 AM 46.9 °F - 37.9 °F 71% 30.14 in 10.0 mi ENE 5.8 mph - N/A   Clear
1:53 AM 44.1 °F 41.5 °F 37.0 °F 76% 30.14 in 10.0 mi East 4.6 mph - N/A   Clear
2:53 AM 44.1 °F - 37.0 °F 76% 30.15 in 10.0 mi Calm Calm - N/A   Clear
3:53 AM 44.1 °F - 37.0 °F 76% 30.15 in 10.0 mi Calm Calm - N/A   Clear
4:53 AM 42.1 °F - 37.0 °F 82% 30.16 in 10.0 mi Calm Calm - N/A   Clear
5:53 AM 39.9 °F - 37.0 °F 89% 30.16 in 10.0 mi Calm Calm - N/A   Clear
6:53 AM 39.9 °F 35.8 °F 37.0 °F 89% 30.17 in 10.0 mi East 5.8 mph - N/A   Clear
7:53 AM 39.9 °F 37.8 °F 37.0 °F 89% 30.16 in 10.0 mi East 3.5 mph - N/A   Clear
8:53 AM 42.1 °F - 37.9 °F 85% 30.16 in 10.0 mi Calm Calm - N/A   Clear
9:53 AM 48.9 °F - 42.1 °F 77% 30.16 in 10.0 mi Calm Calm - N/A   Clear
10:53 AM 55.0 °F - 44.1 °F 67% 30.14 in 10.0 mi Calm Calm - N/A   Clear
11:53 AM 61.0 °F - 43.0 °F 52% 30.10 in 10.0 mi Variable 3.5 mph - N/A   Clear
12:53 PM 64.0 °F - 39.9 °F 41% 30.08 in 10.0 mi SSW 9.2 mph - N/A   Clear
2:53 PM 68.0 °F - 37.9 °F 33% 30.01 in 10.0 mi Variable 4.6 mph - N/A   Clear
3:53 PM 69.1 °F - 36.0 °F 30% 29.97 in 10.0 mi SSE 10.4 mph - N/A   Clear
4:53 PM 69.1 °F - 35.1 °F 29% 29.94 in 10.0 mi South 13.8 mph - N/A   Clear
5:53 PM 68.0 °F - 36.0 °F 31% 29.93 in 10.0 mi South 8.1 mph - N/A   Clear
6:53 PM 64.9 °F - 36.0 °F 34% 29.91 in 10.0 mi SSE 6.9 mph - N/A   Clear
7:53 PM 61.0 °F - 37.9 °F 42% 29.91 in 10.0 mi SE 5.8 mph - N/A   Clear
8:53 PM 57.9 °F - 37.9 °F 47% 29.89 in 10.0 mi ESE 8.1 mph - N/A   Clear
9:53 PM 57.9 °F - 37.0 °F 46% 29.87 in 10.0 mi SSE 8.1 mph - N/A   Partly Cloudy
10:53 PM 60.1 °F - 37.0 °F 42% 29.86 in 10.0 mi SSE 8.1 mph - N/A   Clear
11:53 PM 60.1 °F - 39.0 °F 46% 29.84 in 10.0 mi South 9.2 mph - N/A   Mostly Cloudy